星链-36512(STARLINK-36512)

导读

STARLINK-36512是美国星链计划的卫星,星链计划旨在构建全球卫星互联网星座。该卫星于2026年1月18日成功发射,是星链星座部署进程中的一员,将融入近地轨道卫星网络,助力提供全球覆盖的低延迟宽带互联网服务,进一步推动星链星座组网建设,拓展全球卫星通信覆盖能力。

Basic Information
目录编号:
67504
目录名称:
STARLINK-36512
国际标识:
2026-012M
轨道中心:
EARTH
卫星名称:
星链-36512
卫星全名:
星链-36512(STARLINK-36512)
卫星状态:
在轨 (已飞行229 天)
发射日期:
2026-01-18 UTC
国别 :
美国 (US)
星等 :
--
Orbit Information
数据来源 国际轨道数据
星历时间: 2026-09-04T03:04:12+0800
18小时前
查看轨道信息
半长轴: 6861.153km
偏心率: 0.0001789
轨道倾角: 43.005°
近地点辐角 273.879°
升交点赤经 28.299°
平近点角 86.186°
近地点: 481.788km
远地点: 484.244km
周期: 94.266分钟
每日圈数: 15.275913
Detailed Information
固有亮度:
5
最大亮度:
2.5
卫星平台:
Starlink V1.0
覆盖范围:
全球
运营商:
太空探索技术公司
运营商所在国:
美国
制造商(研发单位):
太空探索技术公司
制造商所在国:
美国
使用方式:
暂无
Satellite Introduction
Starlink 计划是 SpaceX 推出的全球卫星互联网项目,通过发射低轨道卫星,为全球尤其是偏远地区提供高速、低延迟的互联网服务。自 2019 年起,Starlink 已部署数千颗卫星,旨在缩小全球数字鸿沟,推动互联网普及。该项目还为军事、航空等行业提供通信支持,带来广泛经济效益。
2D Orbit Map
3D Orbit Map
Orbit Altitude Analysis Chart
Orbit Inclination Analysis Chart
Orbit Comprehensive Analysis Chart
View Comprehensive Chart
Conjunction Data List
Event ID Objects TCA Miss Dist (km) Collision Risk Probability Collision Risk Index (CRI) Action
CDM_260906-170705-652706-750421
2026-09-06T
17:07:03+0000
0.404 km
远距离
2.267663E-4 高风险 0.82
CDM_260906-153205-652706-750421
2026-09-06T
15:32:54+0000
1.383 km
极远距离
5.693816E-6 低风险 0.5
CDM_260906-184105-652706-750421
2026-09-06T
18:41:12+0000
1.862 km
极远距离
2.3097E-6 低风险 0.42
CDM_260906-135805-652706-750421
2026-09-06T
13:58:44+0000
2.906 km
极远距离
9.717641E-7 极低风险 0.35